#datint,netname,site,siteID,timestamp,IntT,BattV,AirT2,AirT,AirT_Avg,AirT_Max,AirT_Min,RH_Avg,RH_Max,RH_Min,EA_Avg,Td_Avg,Td_Max,Td_Min,WindS_Smp,WindS_Avg,WindD_Avg,WindD_SD,WindS_Max,ETo,ETr,SoilT4,SoilT8,SoilVWC8,SolarW_Avg,wetstate_Avg,wetT_Avg,Precip_accum,Precip_WPG,Precip_TB
15min,AgWx,beryljct,423,20MAR2018:01:00:00,27.7,12.81,27.9,28.0,27.4,28.8,25.9,74,78,67,0.373,20.1,20.8,19.4,3.661,1.7,163,73,3.8,-0.00011,-0.00014,39.9,41.6,23,0,0,35.5,13.11,0.00,0.00
15min,AgWx,beryljct,423,20MAR2018:01:15:00,27.4,12.8,26.1,26.3,25.7,27.9,24.8,78,82,71,0.367,19.9,20.2,19.4,0,2.0,308,50,5.0,-0.00010,-0.00012,39.8,41.8,24,0,0,35.5,13.11,0.00,0.00
15min,AgWx,beryljct,423,20MAR2018:01:30:00,27.0,12.8,28.0,27.4,27.3,28.4,26.4,72,76,68,0.363,19.5,19.9,19.1,1.447,1.3,115,6.8,4.4,-0.00013,-0.00017,39.6,41.6,23,0,0,35.7,13.11,0.00,0.00
15min,AgWx,beryljct,423,20MAR2018:01:45:00,26.6,12.78,25.2,24.3,25.0,27.4,23.9,80,84,72,0.367,19.7,20.0,19.4,1.469,1.7,164,28,3.6,-0.00011,-0.00014,39.4,41.7,24,0,0,35.5,13.11,0.00,0.00
15min,AgWx,beryljct,423,20MAR2018:02:00:00,25.9,12.78,24.2,23.5,23.7,24.2,23.4,83,85,82,0.357,19.4,19.8,19.1,1.008,0.8,178,0.0,1.8,-0.00015,-0.00021,39.2,41.6,24,0,0,35.4,13.11,0.00,0.00
15min,AgWx,beryljct,423,20MAR2018:02:15:00,25.3,12.63,24.3,23.5,23.8,24.4,23.5,84,85,82,0.368,19.5,19.9,19.0,0.899,0.5,178,0.0,1.2,-0.00017,-0.00024,39.1,41.4,23,0,0,35.6,13.11,0.00,0.00
15min,AgWx,beryljct,423,20MAR2018:02:30:00,24.8,12.76,24.1,23.8,23.5,23.8,23.2,86,88,85,0.371,20.0,20.4,19.4,0,0.9,171,5.9,2.7,-0.00015,-0.00020,38.9,41.5,24,0,0,35.4,13.11,0.00,0.00
15min,AgWx,beryljct,423,20MAR2018:02:45:00,24.4,12.75,24.5,24.4,23.8,24.4,23.2,84,86,81,0.366,19.6,20.0,19.1,0,0.1,165,0.0,0.8,-0.00020,-0.00031,38.8,41.3,23,0,0,35.5,13.11,0.00,0.00
15min,AgWx,beryljct,423,20MAR2018:03:00:00,24.2,12.74,25.0,24.6,24.4,25.1,23.2,80,84,78,0.359,19.3,19.6,18.6,0.745,0.2,165,0.2,1.8,-0.00019,-0.00030,38.6,41.3,23,0,0,35.8,13.11,0.00,0.00
15min,AgWx,beryljct,423,20MAR2018:03:15:00,24.1,12.74,24.5,23.1,24.1,24.8,23.1,82,83,79,0.353,19.3,19.8,18.7,0.789,1.2,165,0.1,2.3,-0.00013,-0.00018,38.5,41.2,23,0,0,35.7,13.11,0.00,0.00
15min,AgWx,beryljct,423,20MAR2018:03:30:00,24.1,12.71,22.7,21.8,22.2,23.2,21.5,86,88,83,0.351,18.6,18.9,18.1,0,2.1,100,15,4.6,-0.00010,-0.00012,38.3,41.2,24,0,0,35.6,13.11,0.00,0.00
15min,AgWx,beryljct,423,20MAR2018:03:45:00,23.9,12.72,22.4,22.0,21.8,22.0,21.5,87,88,86,0.350,18.5,19.0,17.9,0,0.3,94,0.4,1.3,-0.00017,-0.00026,38.2,41.1,23,0,0,35.8,13.11,0.00,0.00
15min,AgWx,beryljct,423,20MAR2018:04:00:00,23.8,12.58,22.7,22.2,22.1,22.3,21.8,87,88,86,0.351,18.7,19.0,18.5,0,0.5,94,0.0,1.0,-0.00016,-0.00024,38.1,40.9,23,0,0,35.6,13.11,0.00,0.00
15min,AgWx,beryljct,423,20MAR2018:04:15:00,23.8,12.7,23.1,22.5,22.5,22.7,22.2,87,88,85,0.357,19.1,19.6,18.7,0,0.1,94,0.0,0.9,-0.00019,-0.00029,37.9,40.9,23,0,0,35.5,13.11,0.00,0.00
15min,AgWx,beryljct,423,20MAR2018:04:30:00,23.8,12.7,22.8,21.7,22.3,22.7,21.7,88,89,87,0.353,19.3,19.7,18.8,0.986,1.4,358,43,2.8,-0.00012,-0.00016,37.8,41.0,24,0,0,35.5,13.11,0.00,0.00
15min,AgWx,beryljct,423,20MAR2018:04:45:00,23.7,12.69,22.7,22.5,22.0,22.5,21.5,89,90,89,0.372,19.4,20.1,18.8,0,1.0,107,53,3.1,-0.00014,-0.00019,37.7,40.9,24,0,0,35.6,13.11,0.00,0.00
15min,AgWx,beryljct,423,20MAR2018:05:00:00,23.6,12.66,22.7,22.1,22.2,22.6,22.0,89,90,89,0.361,19.5,20.2,19.1,2.894,1.1,133,36,2.9,-0.00014,-0.00019,37.6,40.8,24,0,0,35.7,13.11,0.00,0.00
15min,AgWx,beryljct,423,20MAR2018:05:15:00,23.7,12.66,22.5,22.2,21.9,22.3,21.8,89,90,88,0.360,19.1,19.4,18.9,0,2.0,316,2.6,3.5,-0.00010,-0.00013,37.4,40.8,24,0,0,35.5,13.11,0.00,0.00
15min,AgWx,beryljct,423,20MAR2018:05:30:00,23.7,12.51,23.2,23.1,22.6,23.1,22.3,87,88,86,0.364,19.2,19.5,18.9,3.288,1.9,341,11,3.7,-0.00011,-0.00014,37.4,40.6,23,0,0,35.3,13.11,0.00,0.00
15min,AgWx,beryljct,423,20MAR2018:05:45:00,24.0,12.64,24.6,24.4,23.8,24.4,23.2,84,86,82,0.365,19.6,19.7,19.3,1.885,2.7,333,7.9,3.3,-0.00008,-0.00009,37.3,40.7,24,0,0,35.8,13.11,0.00,0.00
15min,AgWx,beryljct,423,20MAR2018:06:00:00,24.1,12.65,25.3,24.6,24.7,25.0,24.5,80,81,79,0.361,19.4,19.8,19.3,0,0.4,324,0.0,1.9,-0.00018,-0.00027,37.1,40.4,23,0,0,35.6,13.12,0.00,0.00
15min,AgWx,beryljct,423,20MAR2018:06:15:00,24.1,12.64,25.3,25.0,24.7,25.2,24.1,80,83,78,0.357,19.4,19.8,19.1,0,0.3,325,0.3,2.1,-0.00018,-0.00028,37.1,40.5,24,0,0,35.5,13.12,0.00,0.00
15min,AgWx,beryljct,423,20MAR2018:06:30:00,24.3,12.61,24.1,23.1,23.7,25.0,23.0,83,85,78,0.358,19.3,20.0,18.9,3.858,3.1,165,36,5.1,-0.00007,-0.00008,36.9,40.5,24,0,0,35.5,13.11,0.00,0.00
15min,AgWx,beryljct,423,20MAR2018:06:45:00,24.5,12.62,23.3,22.7,22.8,23.1,22.6,86,86,85,0.357,19.2,19.3,19.0,2.631,3.6,144,13,4.8,-0.00006,-0.00007,36.9,40.3,23,0,0,35.7,13.12,0.00,0.00
15min,AgWx,beryljct,423,20MAR2018:07:00:00,24.6,12.48,23.6,23.2,23.0,23.2,22.7,86,87,85,0.367,19.4,19.8,19.1,0,0.7,158,0.0,2.5,0.00002,0.00003,36.8,40.3,24,0,0,35.7,13.12,0.00,0.00
15min,AgWx,beryljct,423,20MAR2018:07:15:00,24.7,12.62,24.1,23.5,23.5,23.8,23.2,87,88,85,0.379,20.1,20.6,19.7,0,0.3,241,28,1.5,0.00001,0.00001,36.7,40.3,24,0,0,35.6,13.11,0.00,0.00
15min,AgWx,beryljct,423,20MAR2018:07:30:00,24.7,12.61,24.5,24.0,23.9,24.2,23.5,85,88,82,0.383,20.1,20.8,19.4,0.241,0.4,259,0.0,1.0,0.00002,0.00002,36.6,40.1,23,1,0,35.5,13.12,0.00,0.00
15min,AgWx,beryljct,423,20MAR2018:07:45:00,24.7,12.59,24.6,24.1,24.1,24.5,23.7,87,88,84,0.377,20.6,21.1,20.3,0.943,0.3,259,0.0,1.1,0.00002,0.00003,36.5,40.1,24,3,0,35.5,13.12,0.00,0.00
15min,AgWx,beryljct,423,20MAR2018:08:00:00,24.6,12.61,24.2,23.2,23.7,24.1,23.2,87,89,85,0.364,20.5,21.0,19.5,0.636,0.1,259,0.0,1.0,0.00005,0.00006,36.5,40.1,24,12,0,35.5,13.12,0.00,0.00
15min,AgWx,beryljct,423,20MAR2018:08:15:00,24.6,12.63,23.8,23.7,23.2,23.7,23.0,88,89,86,0.385,20.2,20.9,19.5,0,0.6,259,0.1,1.3,0.00013,0.00014,36.4,40.0,24,33,0,35.6,13.12,0.00,0.00
15min,AgWx,beryljct,423,20MAR2018:08:30:00,24.8,12.68,24.8,24.5,24.2,24.6,23.6,86,89,83,0.379,20.7,20.9,20.2,0.592,0.1,300,13,0.6,0.00024,0.00026,36.3,40.0,24,64,0,36.0,13.11,0.00,0.00
15min,AgWx,beryljct,423,20MAR2018:08:45:00,25.3,12.71,25.6,25.8,24.9,25.8,24.5,83,85,80,0.383,20.6,21.0,20.2,2.17,0.9,331,20,3.5,0.00037,0.00041,36.2,39.8,23,97,0,35.7,13.12,0.00,0.00
15min,AgWx,beryljct,423,20MAR2018:09:00:00,26.0,12.78,27.1,27.1,26.4,27.1,25.8,82,85,79,0.412,21.7,22.8,20.5,1.381,1.3,1.2,2.8,3.4,0.00049,0.00054,36.2,39.8,24,132,0,35.9,13.11,0.00,0.00
15min,AgWx,beryljct,423,20MAR2018:09:15:00,27.1,12.89,28.9,29.5,28.2,29.5,27.0,82,84,78,0.431,23.4,24.5,22.2,2.214,1.7,346,14,2.7,0.00062,0.00070,36.1,39.8,24,168,0,37.8,13.12,0.00,0.00
15min,AgWx,beryljct,423,20MAR2018:09:30:00,28.3,13.03,30.8,30.4,30.2,30.5,29.5,71,80,65,0.395,21.9,24.3,20.2,3.025,3.1,319,9.0,4.5,0.00075,0.00089,36.1,39.7,24,181,0,38.9,13.12,0.00,0.00
15min,AgWx,beryljct,423,20MAR2018:09:45:00,29.6,13.23,31.3,31.4,30.8,31.4,30.4,66,71,62,0.395,20.6,22.3,19.2,2.433,2.4,325,4.7,4.5,0.00094,0.00109,36.0,39.7,24,232,0,42.4,13.12,0.00,0.00
15min,AgWx,beryljct,423,20MAR2018:10:00:00,31.1,13.49,31.8,31.4,31.3,31.7,31.1,63,66,60,0.378,20.1,21.1,18.9,2.105,2.0,348,12,3.0,0.00109,0.00125,35.9,39.6,24,274,0,45.0,13.12,0.00,0.00
15min,AgWx,beryljct,423,20MAR2018:10:15:00,32.6,13.69,32.5,32.3,32.0,32.5,31.4,61,65,58,0.377,20.1,21.3,19.1,1.206,1.8,357,9.1,3.0,0.00123,0.00139,35.9,39.5,24,306,0,48.1,13.12,0.00,0.00
15min,AgWx,beryljct,423,20MAR2018:10:30:00,34.1,13.92,33.5,33.3,33.0,33.7,32.3,61,64,57,0.369,21.2,22.9,19.7,2.411,1.4,353,16,3.4,0.00137,0.00152,35.8,39.5,23,335,0,51.4,13.12,0.00,0.00
15min,AgWx,beryljct,423,20MAR2018:10:45:00,35.7,14.08,34.5,34.2,34.0,34.7,33.2,58,62,55,0.396,20.8,22.8,19.5,3.266,3.1,358,16,4.8,0.00147,0.00172,35.8,39.4,23,349,0,49.7,13.12,0.00,0.00
15min,AgWx,beryljct,423,20MAR2018:11:00:00,37.2,14.65,35.3,35.5,34.8,35.5,34.1,58,61,55,0.383,21.3,22.4,20.3,2.105,2.4,18,17,4.6,0.00170,0.00194,35.8,39.4,23,408,0,53.2,13.12,0.00,0.00
15min,AgWx,beryljct,423,20MAR2018:11:15:00,39.0,14.64,36.5,36.3,36.0,36.9,35.2,54,59,52,0.388,21.0,24.1,19.6,0.57,0.7,35,13,2.4,0.00189,0.00206,35.7,39.3,23,441,0,60.5,13.12,0.00,0.00
15min,AgWx,beryljct,423,20MAR2018:11:30:00,40.7,14.56,37.2,36.9,36.7,37.5,36.2,55,59,53,0.408,22.2,24.3,20.8,2.236,1.6,136,32,4.0,0.00198,0.00220,35.7,39.3,23,455,0,62.7,13.12,0.00,0.00
15min,AgWx,beryljct,423,20MAR2018:11:45:00,42.0,14.59,37.8,37.5,37.4,38.0,36.8,57,60,54,0.427,23.4,25.1,21.7,1.732,2.6,138,16,5.0,0.00206,0.00233,35.7,39.2,23,471,0,61.7,13.11,0.00,0.00
15min,AgWx,beryljct,423,20MAR2018:12:00:00,42.9,14.58,38.5,39.4,38.1,39.4,37.4,56,59,55,0.480,23.9,26.3,22.7,2.631,2.2,100,20,4.0,0.00209,0.00235,35.6,39.2,23,467,0,61.7,13.11,0.00,0.00
15min,AgWx,beryljct,423,20MAR2018:12:15:00,43.7,14.53,39.6,40.0,39.2,40.0,38.7,56,58,54,0.476,24.7,26.1,23.7,3.113,1.9,99,28,4.1,0.00197,0.00221,35.7,39.1,23,423,0,61.6,13.11,0.00,0.00
15min,AgWx,beryljct,423,20MAR2018:12:30:00,44.5,14.54,40.6,40.3,40.2,40.8,39.5,54,58,50,0.422,25.0,26.9,23.0,2.302,2.1,61,32,4.1,0.00201,0.00227,35.7,39.1,23,422,0,60.5,13.11,0.00,0.00
15min,AgWx,beryljct,423,20MAR2018:12:45:00,45.5,14.49,41.6,42.0,41.2,42.1,40.2,48,55,42,0.391,23.0,26.7,19.9,0,1.0,36,23,3.2,0.00228,0.00250,35.9,39.0,23,478,0,65.0,13.11,0.00,0.00
15min,AgWx,beryljct,423,20MAR2018:13:00:00,46.9,14.45,43.1,43.1,42.7,44.0,41.8,44,50,39,0.384,22.4,26.4,19.6,2.236,1.2,312,23,3.1,0.00265,0.00292,36.2,39.0,23,548,0,71.2,13.11,0.00,0.00
15min,AgWx,beryljct,423,20MAR2018:13:15:00,48.5,14.48,44.2,44.8,43.8,45.1,42.7,39,42,37,0.402,20.4,23.3,18.3,2.674,1.1,357,31,2.7,0.00297,0.00328,36.5,39.0,23,615,0,73.0,13.11,0.00,0.00
15min,AgWx,beryljct,423,20MAR2018:13:30:00,50.5,13.97,46.0,46.7,45.7,46.9,44.4,34,39,30,0.368,18.6,21.6,16.3,0.592,1.5,64,54,3.3,0.00369,0.00409,36.9,38.9,23,759,0,77.9,13.11,0.00,0.00
15min,AgWx,beryljct,423,20MAR2018:13:45:00,52.9,13.97,47.9,47.9,47.6,48.7,46.7,33,38,31,0.384,19.8,24.0,17.6,3.705,1.3,121,81,4.3,0.00365,0.00404,37.3,38.9,23,721,0,82.1,13.11,0.00,0.00
15min,AgWx,beryljct,423,20MAR2018:14:00:00,54.2,13.93,48.9,50.2,48.5,50.2,47.3,32,36,28,0.423,19.7,23.1,16.6,2.938,2.5,64,40,5.4,0.00399,0.00452,37.8,38.9,23,796,0,76.8,13.11,0.00,0.00
15min,AgWx,beryljct,423,20MAR2018:14:15:00,55.8,13.93,49.7,49.6,49.6,51.1,48.7,29,36,27,0.351,18.8,24.6,15.9,4.209,2.3,77,28,6.0,0.00436,0.00490,38.4,38.9,23,850,0,80.4,13.11,0.00,0.00
15min,AgWx,beryljct,423,20MAR2018:14:30:00,57.4,13.86,50.9,50.9,50.7,52.4,49.2,29,34,27,0.392,19.5,23.5,16.5,7.607,3.7,132,41,7.9,0.00470,0.00541,39.0,38.9,23,899,0,78.9,13.11,0.00,0.00
15min,AgWx,beryljct,423,20MAR2018:14:45:00,58.1,13.85,51.0,51.3,50.8,52.2,49.6,29,34,26,0.368,19.4,24.3,16.3,6.796,3.1,94,51,8.5,0.00455,0.00520,39.7,38.9,23,868,0,76.2,13.11,0.00,0.00
15min,AgWx,beryljct,423,20MAR2018:15:00:00,58.8,13.84,51.7,51.7,51.4,52.1,50.8,29,34,26,0.376,19.8,24.3,16.8,4.275,4.7,115,38,8.2,0.00428,0.00507,40.3,38.9,23,805,0,71.6,13.11,0.00,0.00
15min,AgWx,beryljct,423,20MAR2018:15:15:00,59.3,13.82,52.6,52.7,52.4,53.3,51.4,29,33,24,0.380,20.7,24.9,16.5,2.718,4.9,115,32,9.5,0.00457,0.00541,41.0,39.0,23,848,0,71.7,13.11,0.00,0.00
15min,AgWx,beryljct,423,20MAR2018:15:30:00,60.0,13.78,53.5,54.0,53.3,54.5,52.3,27,31,23,0.388,20.5,24.1,16.7,6.007,5.9,121,40,12.4,0.00440,0.00534,41.7,39.0,23,796,0,70.9,13.11,0.00,0.00
15min,AgWx,beryljct,423,20MAR2018:15:45:00,60.3,13.82,54.4,53.4,54.3,55.4,53.3,25,29,22,0.358,19.3,22.9,16.1,2.718,6.1,176,36,12.8,0.00395,0.00493,42.2,39.1,23,685,0,67.1,13.11,0.00,0.00
15min,AgWx,beryljct,423,20MAR2018:16:00:00,59.8,13.79,54.6,55.2,54.4,55.7,53.1,27,31,24,0.418,21.4,24.7,17.2,12.04,9.1,161,24,13.8,0.00326,0.00441,42.7,39.2,23,508,0,63.0,13.11,0.00,0.00
15min,AgWx,beryljct,423,20MAR2018:16:15:00,59.3,13.85,54.5,53.9,54.3,55.2,53.6,27,31,24,0.375,20.8,24.5,18.3,9.45,9.8,163,17,15.5,0.00378,0.00504,43.0,39.3,23,619,0,62.8,13.11,0.00,0.00
15min,AgWx,beryljct,423,20MAR2018:16:30:00,59.3,13.8,55.2,54.9,55.0,56.4,53.9,26,28,24,0.377,20.6,23.2,18.4,13.46,11.5,173,20,16.3,0.00402,0.00542,43.2,39.4,23,640,0,62.6,13.11,0.00,0.00
15min,AgWx,beryljct,423,20MAR2018:16:45:00,59.5,13.89,55.3,55.5,55.1,56.0,54.2,25,28,23,0.376,20.2,22.5,18.0,12.69,12.1,167,11,17.1,0.00395,0.00541,43.4,39.6,23,615,0,61.1,13.11,0.00,0.00
15min,AgWx,beryljct,423,20MAR2018:17:00:00,59.6,13.81,55.6,55.7,55.5,56.7,54.4,25,29,23,0.366,20.7,24.1,17.1,9.03,11.0,182,31,16.2,0.00359,0.00496,43.6,39.7,23,542,0,60.2,13.11,0.00,0.00
15min,AgWx,beryljct,423,20MAR2018:17:15:00,59.5,13.8,55.5,54.9,55.4,56.2,54.8,24,26,22,0.337,19.0,21.3,16.7,12.36,12.7,185,13,20.7,0.00335,0.00485,43.8,39.8,23,459,0,59.2,13.11,0.00,0.00
15min,AgWx,beryljct,423,20MAR2018:17:30:00,59.2,13.86,55.3,54.5,55.2,55.8,54.5,23,25,21,0.331,17.9,20.3,16.2,11.57,12.3,180,11,17.0,0.00335,0.00483,44.1,39.9,23,462,0,58.6,13.11,0.00,0.00
15min,AgWx,beryljct,423,20MAR2018:17:45:00,58.9,13.85,55.0,54.5,54.8,55.6,54.3,23,24,21,0.321,17.3,19.4,15.6,10.37,12.1,180,11,17.0,0.00306,0.00451,44.3,40.1,23,403,0,57.5,13.11,0.00,0.00
15min,AgWx,beryljct,423,20MAR2018:18:00:00,58.2,13.9,54.0,53.8,53.9,54.4,53.4,23,25,21,0.308,16.8,18.9,14.7,11.2,11.4,174,8.0,17.4,0.00236,0.00369,44.5,40.2,23,271,0,56.0,13.10,0.00,0.00
15min,AgWx,beryljct,423,20MAR2018:18:15:00,57.0,13.92,53.5,52.9,53.3,53.8,52.8,22,24,21,0.314,15.9,17.5,14.4,7.41,10.8,185,7.3,15.5,0.00186,0.00312,44.7,40.3,23,174,0,55.3,13.11,0.00,0.00
15min,AgWx,beryljct,423,20MAR2018:18:30:00,55.6,13.96,53.0,52.6,52.7,52.9,52.5,24,25,22,0.316,16.5,18.1,15.5,10.37,9.7,190,6.8,13.3,0.00151,0.00262,44.8,40.4,23,133,0,54.4,13.11,0.00,0.00
15min,AgWx,beryljct,423,20MAR2018:18:45:00,54.6,13.36,52.7,52.1,52.5,52.8,52.1,24,27,22,0.340,16.8,19.0,15.1,7.015,9.4,187,8.8,12.7,0.00141,0.00249,44.9,40.5,23,118,0,54.1,13.11,0.00,0.00
15min,AgWx,beryljct,423,20MAR2018:19:00:00,53.5,13.24,51.8,51.5,51.7,52.0,51.5,26,28,25,0.335,18.1,20.0,16.7,7.037,7.8,196,7.4,9.8,0.00064,0.00080,45.0,40.5,23,79,0,52.7,13.10,0.00,0.00
15min,AgWx,beryljct,423,20MAR2018:19:15:00,52.7,13.12,51.2,50.5,51.1,51.5,50.5,26,28,25,0.345,17.8,19.1,16.8,7.344,8.0,191,5.6,10.9,0.00059,0.00075,45.0,40.8,24,50,0,51.6,13.10,0.00,0.00
15min,AgWx,beryljct,423,20MAR2018:19:30:00,51.5,13.08,49.5,48.3,49.4,50.5,48.3,30,33,27,0.379,19.4,20.8,17.8,5.919,6.1,178,7.3,8.6,0.00040,0.00054,45.0,40.9,24,24,0,49.2,13.11,0.00,0.00
15min,AgWx,beryljct,423,20MAR2018:19:45:00,50.2,13.04,47.7,47.1,47.6,48.4,47.1,34,35,32,0.374,20.7,21.3,20.0,5.656,5.9,171,5.2,7.1,0.00032,0.00043,44.9,41.0,24,8,0,47.0,13.11,0.00,0.00
15min,AgWx,beryljct,423,20MAR2018:20:00:00,48.9,13.03,46.9,46.7,46.6,47.2,46.2,35,36,34,0.391,20.6,21.2,20.2,5.568,6.3,173,5.8,7.6,0.00032,0.00042,44.8,41.1,24,1,0,45.9,13.11,0.00,0.00
15min,AgWx,beryljct,423,20MAR2018:20:15:00,47.8,13.01,45.9,45.5,45.6,46.6,45.1,38,40,36,0.391,21.8,22.2,21.2,6.357,6.1,180,4.7,7.3,0.00027,0.00037,44.8,41.2,24,0,0,45.1,13.11,0.00,0.00
15min,AgWx,beryljct,423,20MAR2018:20:30:00,47.0,12.99,46.2,46.3,45.8,46.3,45.4,37,39,35,0.372,20.9,22.0,20.0,7.541,6.7,192,5.8,8.3,0.00031,0.00041,44.6,41.3,24,0,0,45.1,13.11,0.00,0.00
15min,AgWx,beryljct,423,20MAR2018:20:45:00,46.8,12.99,46.8,46.4,46.4,46.7,46.1,35,36,33,0.368,20.0,20.6,19.1,8.02,7.4,206,6.8,9.1,0.00037,0.00048,44.5,41.4,24,0,0,45.6,13.11,0.00,0.00
15min,AgWx,beryljct,423,20MAR2018:21:00:00,46.7,12.98,46.5,45.9,46.3,46.4,45.9,34,36,34,0.366,19.7,20.2,19.2,7.388,8.1,209,4.4,9.6,0.00040,0.00051,44.3,41.5,24,0,0,45.4,13.11,0.00,0.00
15min,AgWx,beryljct,423,20MAR2018:21:15:00,46.5,12.96,45.9,45.2,45.7,45.9,45.2,35,37,34,0.375,19.8,20.3,19.2,6.357,6.6,203,3.6,8.2,0.00032,0.00042,44.2,41.6,24,0,0,44.8,13.11,0.00,0.00
15min,AgWx,beryljct,423,20MAR2018:21:30:00,46.2,12.96,45.4,45.0,45.2,45.5,44.8,36,37,35,0.374,20.0,20.5,19.1,5.787,5.8,200,5.0,7.2,0.00027,0.00037,44.0,41.7,24,0,0,44.4,13.11,0.00,0.00
15min,AgWx,beryljct,423,20MAR2018:21:45:00,46.0,12.96,45.6,45.7,45.2,45.7,45.0,36,37,33,0.342,19.8,20.5,18.1,6.927,5.2,211,6.4,8.0,0.00023,0.00032,43.8,41.7,24,0,0,44.4,13.11,0.00,0.00
15min,AgWx,beryljct,423,20MAR2018:22:00:00,46.1,12.94,46.6,46.2,46.2,46.5,45.8,33,34,31,0.358,18.7,19.2,17.7,5.196,6.0,231,4.8,8.2,0.00031,0.00041,43.7,41.8,24,0,0,46.1,13.11,0.00,0.00
15min,AgWx,beryljct,423,20MAR2018:22:15:00,46.3,12.95,46.6,46.6,46.3,46.6,45.9,34,35,32,0.353,19.2,20.0,18.4,5.283,5.8,230,7.4,7.9,0.00029,0.00040,43.6,41.8,24,0,0,46.3,13.11,0.00,0.00
15min,AgWx,beryljct,423,20MAR2018:22:30:00,46.4,12.93,45.3,42.7,45.4,46.8,42.7,38,48,31,0.450,20.9,24.6,17.9,3.529,4.6,175,42,8.8,0.00019,0.00028,43.4,41.9,24,0,0,45.6,13.11,0.00,0.00
15min,AgWx,beryljct,423,20MAR2018:22:45:00,45.8,12.94,42.3,41.4,42.1,42.6,41.4,50,54,47,0.464,24.7,26.2,23.6,5.48,3.7,127,6.6,5.5,0.00006,0.00011,43.3,41.9,24,0,0,42.4,13.11,0.00,0.00
15min,AgWx,beryljct,423,20MAR2018:23:00:00,44.9,12.93,41.3,40.8,41.1,41.7,40.4,55,59,51,0.485,26.0,27.4,24.8,2.565,3.3,133,8.0,6.3,0.00002,0.00005,43.1,42.0,24,0,0,41.5,13.11,0.00,0.00
15min,AgWx,beryljct,423,20MAR2018:23:15:00,44.0,12.93,41.3,41.3,40.9,41.5,40.5,55,58,51,0.465,25.9,27.0,24.7,1.841,1.5,165,5.8,2.7,-0.00012,-0.00015,43.0,42.0,24,0,0,40.7,13.11,0.00,0.00
15min,AgWx,beryljct,423,20MAR2018:23:30:00,43.5,12.92,42.2,41.8,41.8,42.2,41.2,50,54,47,0.438,24.6,26.0,23.6,3.968,3.2,167,5.2,4.0,0.00002,0.00006,42.9,42.0,24,0,0,41.8,13.11,0.00,0.00
15min,AgWx,beryljct,423,20MAR2018:23:45:00,43.2,12.91,41.6,40.7,41.3,42.0,40.6,52,54,48,0.459,24.8,25.4,23.6,4.45,4.4,172,6.4,5.2,0.00009,0.00014,42.8,42.0,24,0,0,41.7,13.11,0.00,0.00
15min,AgWx,beryljct,423,21MAR2018:00:00:00,42.8,12.91,40.9,40.4,40.6,40.8,40.4,53,55,52,0.467,25.0,25.6,24.6,3.771,4.5,164,6.0,5.4,0.00008,0.00013,42.7,42.0,24,0,0,40.7,13.11,0.00,0.00
15min,AgWx,beryljct,423,21MAR2018:00:15:00,42.4,12.91,41.5,40.5,41.1,41.8,40.3,51,56,48,0.479,24.5,26.1,23.4,3.99,4.1,165,7.6,4.8,0.00007,0.00012,42.6,42.0,24,0,0,41.0,13.11,0.00,0.00
15min,AgWx,beryljct,423,21MAR2018:00:30:00,42.3,12.89,41.8,42.0,41.3,42.1,40.5,51,56,48,0.439,24.7,26.0,23.9,5.217,4.9,177,8.0,5.9,0.00012,0.00017,42.4,42.0,24,0,0,41.5,13.11,0.00,0.00
15min,AgWx,beryljct,423,21MAR2018:00:45:00,42.5,12.89,43.1,44.0,42.5,44.0,41.8,47,50,42,0.414,23.8,24.6,22.3,4.253,4.6,205,16,5.9,0.00013,0.00019,42.3,42.0,24,0,0,42.8,13.11,0.00,0.00
15min,AgWx,bigpiney,439,20MAR2018:01:00:00,19.2,12.87,16.7,15.9,17.4,18.7,15.7,79,83,76,0.252,12.1,13.3,10.6,5.371,5.5,236,6.6,6.8,0.00002,0.00003,31.6,31.7,15,0,0,0.0,.,0.00,0.00
15min,AgWx,bigpiney,439,20MAR2018:01:15:00,18.9,12.86,18.0,17.0,15.5,17.0,14.9,84,86,82,0.280,11.4,13.5,10.7,0.504,3.9,255,46,5.6,-0.00001,-0.00000,31.6,31.8,15,0,0,0.0,.,0.00,0.00
15min,AgWx,bigpiney,439,20MAR2018:01:30:00,18.7,12.85,19.7,18.9,18.6,20.0,17.1,80,86,76,0.275,13.5,14.4,12.8,1.688,1.8,328,28,4.1,-0.00004,-0.00004,31.6,31.8,15,0,0,0.0,.,0.00,0.00
15min,AgWx,bigpiney,439,20MAR2018:01:45:00,18.6,12.85,19.7,19.8,19.2,20.0,18.2,78,80,76,0.280,13.6,14.1,12.5,2.916,1.6,266,31,2.9,-0.00004,-0.00005,31.6,31.8,15,0,0,0.0,.,0.00,0.00
15min,AgWx,bigpiney,439,20MAR2018:02:00:00,18.5,12.84,13.5,12.7,15.9,19.7,12.4,80,86,74,0.228,10.8,13.7,7.7,2.433,3.6,211,15,5.5,-0.00000,0.00000,31.6,31.8,15,0,0,0.0,.,0.00,0.00
15min,AgWx,bigpiney,439,20MAR2018:02:15:00,18.1,12.82,14.2,14.2,13.4,15.4,12.4,87,90,84,0.251,10.2,13.0,8.9,0.504,2.0,224,69,7.1,-0.00004,-0.00004,31.6,31.8,15,0,0,0.0,.,0.00,0.00
15min,AgWx,bigpiney,439,20MAR2018:02:30:00,17.4,12.82,15.1,14.2,14.1,14.6,13.4,86,88,85,0.247,10.8,11.5,10.0,1.315,2.1,62,41,4.4,-0.00004,-0.00004,31.6,31.8,15,0,0,0.0,.,0.00,0.00
15min,AgWx,bigpiney,439,20MAR2018:02:45:00,16.9,12.81,15.7,14.4,14.8,15.8,13.1,84,87,81,0.252,10.9,12.1,8.3,0.789,1.8,189,67,4.4,-0.00004,-0.00005,31.6,31.8,15,0,0,0.0,.,0.00,0.00
15min,AgWx,bigpiney,439,20MAR2018:03:00:00,16.5,12.8,14.8,14.4,14.7,15.6,13.7,86,88,83,0.254,11.3,12.3,9.5,0.855,2.8,278,14,4.4,-0.00003,-0.00003,31.5,31.8,15,0,0,0.0,.,0.00,0.00
15min,AgWx,bigpiney,439,20MAR2018:03:15:00,16.6,12.79,17.1,16.5,15.7,16.5,14.4,88,89,87,0.280,12.7,13.5,11.2,4.121,2.5,348,14,4.5,-0.00003,-0.00004,31.5,31.8,15,0,0,0.0,.,0.00,0.00
15min,AgWx,bigpiney,439,20MAR2018:03:30:00,17.0,12.77,18.2,17.5,16.7,17.5,16.5,88,88,87,0.294,13.6,14.6,13.3,2.696,3.0,310,19,4.1,-0.00003,-0.00003,31.6,31.8,15,0,0,0.0,.,0.00,0.00
15min,AgWx,bigpiney,439,20MAR2018:03:45:00,17.5,12.77,18.1,17.5,17.4,18.0,16.5,87,88,85,0.286,14.1,14.8,13.0,0,1.4,264,14,3.6,-0.00005,-0.00007,31.6,31.8,15,0,0,0.0,.,0.00,0.00
15min,AgWx,bigpiney,439,20MAR2018:04:00:00,17.9,12.76,19.7,19.2,18.4,19.2,17.5,85,87,84,0.302,14.7,15.3,14.0,1.162,0.7,346,47,2.1,-0.00007,-0.00010,31.6,31.7,15,0,0,0.0,.,0.00,0.00
15min,AgWx,bigpiney,439,20MAR2018:04:15:00,18.4,12.75,18.6,19.0,19.4,19.6,19.0,84,84,83,0.299,15.2,15.4,15.0,0,1.3,316,41,3.0,-0.00006,-0.00007,31.6,31.8,15,0,0,0.0,.,0.00,0.00
15min,AgWx,bigpiney,439,20MAR2018:04:30:00,18.9,12.75,17.7,18.1,18.7,19.0,18.1,85,86,84,0.286,14.9,15.5,13.9,2.192,1.7,237,34,3.6,-0.00005,-0.00006,31.6,31.8,15,0,0,0.0,.,0.00,0.00
15min,AgWx,bigpiney,439,20MAR2018:04:45:00,19.0,12.73,18.5,17.6,18.4,19.2,17.6,85,87,83,0.282,14.6,15.5,13.6,0.438,1.1,213,36,3.1,-0.00006,-0.00008,31.6,31.8,15,0,0,0.0,.,0.00,0.00
15min,AgWx,bigpiney,439,20MAR2018:05:00:00,18.7,12.72,18.0,16.9,17.4,18.5,16.3,86,89,82,0.278,14.0,15.5,12.1,3.617,1.4,248,22,5.3,-0.00005,-0.00007,31.6,31.8,15,0,0,0.0,.,0.00,0.00
15min,AgWx,bigpiney,439,20MAR2018:05:15:00,18.2,12.72,19.1,17.6,16.5,18.1,14.6,86,90,82,0.298,13.2,15.5,10.5,0.57,1.9,259,24,5.4,-0.00004,-0.00005,31.6,31.8,15,0,0,0.0,.,0.00,0.00
15min,AgWx,bigpiney,439,20MAR2018:05:30:00,17.4,12.7,16.5,17.0,16.2,18.5,13.7,86,91,80,0.283,12.8,15.4,9.5,0.066,1.7,203,80,4.6,-0.00004,-0.00005,31.6,31.8,15,0,0,0.0,.,0.00,0.00
15min,AgWx,bigpiney,439,20MAR2018:05:45:00,16.8,12.7,17.8,17.3,17.1,17.9,16.6,87,88,85,0.289,13.9,14.9,13.1,0,0.7,159,64,2.3,-0.00007,-0.00010,31.6,31.8,15,0,0,0.0,.,0.00,0.00
15min,AgWx,bigpiney,439,20MAR2018:06:00:00,16.4,12.68,17.9,17.3,17.5,17.9,17.1,88,89,87,0.292,14.4,14.8,13.8,0,0.5,113,26,1.3,-0.00008,-0.00011,31.6,31.8,15,0,0,0.0,.,0.00,0.00
15min,AgWx,bigpiney,439,20MAR2018:06:15:00,16.0,12.68,17.7,16.4,15.9,17.4,13.7,89,91,86,0.290,13.1,14.7,10.2,0.68,1.4,225,20,4.4,-0.00005,-0.00007,31.6,31.8,15,0,0,0.0,.,0.00,0.00
15min,AgWx,bigpiney,439,20MAR2018:06:30:00,15.7,12.67,13.9,13.5,15.0,16.9,12.7,88,92,85,0.246,12.2,14.7,9.1,4.889,2.0,246,32,5.0,-0.00004,-0.00005,31.5,31.8,15,0,0,0.0,.,0.00,0.00
15min,AgWx,bigpiney,439,20MAR2018:06:45:00,15.2,12.67,13.5,13.7,13.5,14.5,12.2,89,91,84,0.253,10.8,12.3,8.2,4.867,2.8,354,57,5.9,-0.00003,-0.00003,31.5,31.8,15,0,0,0.0,.,0.00,0.00
15min,AgWx,bigpiney,439,20MAR2018:07:00:00,14.9,12.67,14.2,13.7,13.7,14.5,12.6,90,91,87,0.254,11.2,12.3,9.4,2.609,1.7,17,33,5.4,-0.00004,-0.00005,31.5,31.8,15,0,0,0.0,.,0.00,0.00
15min,AgWx,bigpiney,439,20MAR2018:07:15:00,14.6,12.66,15.6,14.0,14.2,15.0,13.1,90,91,88,0.257,11.8,13.0,10.3,1.447,1.8,314,19,4.6,-0.00004,-0.00005,31.5,31.8,15,1,0,0.0,.,0.00,0.00
15min,AgWx,bigpiney,439,20MAR2018:07:30:00,14.4,12.69,14.9,14.9,14.7,15.6,13.2,89,91,87,0.261,12.1,13.0,10.1,3.464,2.2,5.2,51,5.8,-0.00003,-0.00004,31.5,31.8,15,6,0,0.0,.,0.00,0.00
15min,AgWx,bigpiney,439,20MAR2018:07:45:00,14.4,12.75,15.3,14.5,13.9,14.9,13.3,88,89,87,0.261,10.9,11.9,10.2,0.921,1.5,287,16,4.8,-0.00013,-0.00013,31.5,31.8,15,13,0,0.0,.,0.00,0.00
15min,AgWx,bigpiney,439,20MAR2018:08:00:00,14.4,12.97,14.4,14.6,14.5,14.8,13.9,88,89,86,0.258,11.7,12.1,10.5,1.052,0.8,312,12,2.0,-0.00014,-0.00014,31.5,31.8,15,45,0,0.0,.,0.00,0.00
15min,AgWx,bigpiney,439,20MAR2018:08:15:00,14.7,13.38,16.0,15.5,14.8,15.5,14.2,87,88,86,0.266,11.8,12.3,10.8,0.986,2.3,234,9.7,4.5,-0.00000,0.00002,31.5,31.8,15,84,0,0.0,.,0.00,0.00
15min,AgWx,bigpiney,439,20MAR2018:08:30:00,15.3,15.01,17.4,16.8,16.0,16.8,15.5,87,88,87,0.281,12.9,13.6,12.3,2.631,1.0,223,31,3.8,0.00011,0.00013,31.6,31.8,15,110,0,0.0,.,0.00,0.00
15min,AgWx,bigpiney,439,20MAR2018:08:45:00,16.5,15.06,19.8,19.3,17.9,19.4,16.8,87,88,86,0.310,14.7,16.3,13.6,0,2.3,234,17,4.4,0.00031,0.00035,31.5,31.8,15,192,0,0.0,.,0.00,0.00